Weather in Lyon

France     45°45′35″N   4°50′12″E
temp.,
°C
wind,
m/s
gust,
m/s
humid.,
%
clouds,
%
prec.,
mm/h
press.,
hPa
HPBL,
m
6 may, thu
thu623:00+8sw2261100 0.0 101719
02:00+7sw116896 0.0 101611
05:00+7sw2267100 0.0 101560
08:00+9sw1261100 0.0 1014149
11:00+9se2677100 0.2 1013252
14:00+11s3981100 0.6 1011439
17:00+13ssw4985100 0.8 1011444
20:00+12ssw3781100 1.2 1012252
7 may, fri
fri723:00+11nw1195100 1.3 101330
02:00+10w1391100 3.8 101485
05:00+9wnw1193100 0.3 101519
08:00+9ese1196100 0.8 101666
11:00+9sse0195100 1.4 101777
14:00+11sse2287100 1.9 1018518
17:00+14n137699 1.8 1017734
20:00+12nne118786 2.9 101812
8 may, sat
sat823:00+8nnw119439 0.0 102010
02:00+7wnw119525 0.0 102011
05:00+7ssw119567 0.0 101910
08:00+9sse119143 0.0 1019103
11:00+15se236523 0.0 1017583
14:00+19se33527 0.0 1016895
17:00+21sse455396 0.0 1013782
20:00+19sse496734 0.0 1012434
9 may, sun
sun923:00+15s4117663 0.0 1012342
02:00+13s5137854 0.0 1012481
05:00+12s4137644 0.0 1011667
08:00+16s717625 0.0 10101255
11:00+20s919545 0.0 10091505
14:00+23s9185082 0.0 10081602
17:00+23s9185089 0.0 10061856
20:00+19s92155100 0.1 10041572
10 may, mon
mon1023:00+19s112342100 0.0 10031528
02:00+15s92174100 0.8 10051249
05:00+16s1021665 1.1 10031330
08:00+15s51579100 1.5 10051189
11:00+14s61591100 2.1 10071434
14:00+10ssw2393100 10.2 1010274
17:00+11ene2292100 6.8 1011443
20:00+11s2399100 13.1 1008314